Location: The Saddle
(36.8333°N, 80.3417°W)
Time: 13:31:40
(UTC-04:00)

AO-7 - Pass Details

Date: 30 March 2023
Orbit: 1439 x 1459 km, 101.9° (Epoch: 02 June)

Event Time Altitude Azimuth Distance (km) Brightness Sun altitude
Rises 06:25:26 0° 15° (NNE) 4,561 ? -9.7°
Reaches altitude 10° 06:28:13 10° 15° (NNE) 3,577 ? -9.2°
Maximum altitude 06:36:34 83° 289° (WNW) 1,460 ? -7.6°
Drops below altitude 10° 06:44:51 10° 203° (SSW) 3,546 ? -5.9°
Sets 06:47:36 0° 202° (SSW) 4,519 ? -5.4°
